{"data":{"norad_id":52000,"epoch":"2026-05-24T23:48:25.308576Z","epoch_age_seconds":69018,"freshness":"FRESH","line1":"1 52000U 22025AW  26144.99195959 -.00000352  00000+0 -40335-5 0  9992","line2":"2 52000  53.2133  36.4977 0001414  82.2899 277.8253 15.08839455232447","mean_motion":15.08839455,"eccentricity":0.0001414,"inclination_deg":53.2133,"raan_deg":36.4977,"arg_perigee_deg":82.2899,"mean_anomaly_deg":277.8253,"bstar":-4.0335e-6,"rev_number":23244,"period_min":95.437589150265,"perigee_km":538.76686628902,"apogee_km":540.72324333413,"semimajor_km":6917.8820548116,"source":"CELESTRAK","updated_at":"2026-05-25T13:38:16.999750Z"}}